KQ4NAL Weather Reports


Display with metric or nautical units.
time (UTC)temp
F
wind
direction
speed
MPH
gust
MPH
rain 1hr
in
rain 24hr
in
rain mn
in
humidity
%
barometer
mb
20260905215822 82 317 2.0 3.0 0.00 0.00 0.00 78 1012.5
20260905215318 83 34 3.0 5.0 0.00 0.00 0.00 75 1012.8
20260905214814 83 259 2.0 2.0 0.00 0.00 0.00 77 1012.8
20260905214309 83 340 3.0 3.0 0.00 0.00 0.00 76 1012.5
20260905213805 84 207 3.0 3.0 0.00 0.00 0.00 77 1012.8
20260905213301 84 356 0.0 0.0 0.00 0.00 0.00 75 1012.6
20260905212801 85 8 5.0 6.0 0.00 0.00 0.00 74 1012.5
20260905212255 84 335 0.0 0.0 0.00 0.00 0.00 76 1012.5
20260905211755 85 44 2.0 3.0 0.00 0.00 0.00 73 1012.6
20260905211250 85 354 0.0 0.0 0.00 0.00 0.00 73 1012.8
20260905210747 85 355 3.0 3.0 0.00 0.00 0.00 73 1013.0
20260905210241 85 349 0.0 0.0 0.00 0.00 0.00 72 1012.5
20260905205739 85 3 2.0 2.0 0.00 0.00 0.00 72 1012.4
20260905205234 85 344 2.0 2.0 0.00 0.00 0.00 71 1012.5
20260905204728 86 340 0.0 0.0 0.00 0.00 0.00 70 1012.6
20260905204224 87 109 1.0 3.0 0.00 0.00 0.00 67 1012.6
20260905203724 90 160 2.0 5.0 0.00 0.00 0.00 63 1012.6
20260905203219 92 27 1.0 2.0 0.00 0.00 0.00 59 1012.7
20260905202715 91 341 0.0 1.0 0.00 0.00 0.00 60 1012.7
20260905202209 91 19 5.0 9.0 0.00 0.00 0.00 60 1012.6
20260905201705 92 323 1.0 3.0 0.00 0.00 0.00 59 1012.8
20260905201205 92 324 1.0 1.0 0.00 0.00 0.00 57 1012.4
20260905200700 94 355 5.0 7.0 0.00 0.00 0.00 55 1012.7
20260905200155 94 316 1.0 2.0 0.00 0.00 0.00 56 1012.6
20260905195653 93 25 3.0 3.0 0.00 0.00 0.00 56 1012.8
20260905195149 92 271 0.0 2.0 0.00 0.00 0.00 58 1012.7
20260905194644 92 333 2.0 2.0 0.00 0.00 0.00 57 1013.0
20260905194138 93 337 0.0 0.0 0.00 0.00 0.00 54 1013.1
20260905193633 93 329 1.0 3.0 0.00 0.00 0.00 55 1013.2
20260905193132 95 319 0.0 1.0 0.00 0.00 0.00 54 1013.3
20260905192628 94 342 1.0 1.0 0.00 0.00 0.00 52 1013.4
20260905192125 93 328 2.0 3.0 0.00 0.00 0.00 53 1013.4
20260905191624 92 308 4.0 5.0 0.00 0.00 0.00 54 1013.5
20260905191122 94 311 1.0 1.0 0.00 0.00 0.00 53 1013.6
20260905190621 93 324 2.0 3.0 0.00 0.00 0.00 53 1013.6
20260905190121 94 345 1.0 2.0 0.00 0.00 0.00 52 1014.1
20260905185619 93 324 4.0 6.0 0.00 0.00 0.00 52 1013.8
20260905185114 94 259 2.0 3.0 0.00 0.00 0.00 52 1014.0
20260905184608 94 331 4.0 6.0 0.00 0.00 0.00 53 1013.9
20260905184107 92 351 3.0 3.0 0.00 0.00 0.00 53 1014.0
20260905183606 93 242 4.0 6.0 0.00 0.00 0.00 54 1014.0
20260905183102 93 273 2.0 2.0 0.00 0.00 0.00 53 1014.1
20260905182601 92 227 5.0 7.0 0.00 0.00 0.00 54 1014.3
20260905182057 92 284 3.0 3.0 0.00 0.00 0.00 56 1014.3
20260905181556 91 249 3.0 5.0 0.00 0.00 0.00 56 1014.3
20260905181055 93 1 3.0 3.0 0.00 0.00 0.00 55 1014.2
20260905180550 94 234 1.0 2.0 0.00 0.00 0.00 54 1014.3
20260905180046 92 336 0.0 0.0 0.00 0.00 0.00 56 1014.2
20260905175545 91 277 1.0 1.0 0.00 0.00 0.00 56 1014.0
20260905175041 91 220 4.0 5.0 0.00 0.00 0.00 56 1014.2
20260905174536 91 295 3.0 3.0 0.00 0.00 0.00 55 1014.1
20260905174031 91 344 1.0 1.0 0.00 0.00 0.00 55 1014.1
20260905173528 92 350 0.0 0.0 0.00 0.00 0.00 54 1014.3
20260905173023 91 314 1.0 2.0 0.00 0.00 0.00 57 1014.2
20260905172521 90 256 2.0 2.0 0.00 0.00 0.00 56 1014.2
20260905172017 90 337 1.0 2.0 0.00 0.00 0.00 57 1014.4
20260905171513 89 340 1.0 1.0 0.00 0.00 0.00 56 1014.6
20260905171009 91 317 0.0 1.0 0.00 0.00 0.00 54 1014.5
20260905170506 91 319 0.0 0.0 0.00 0.00 0.00 55 1014.6
20260905170006 90 287 0.0 0.0 0.00 0.00 0.00 56 1014.9
20260905165501 89 304 1.0 1.0 0.00 0.00 0.00 57 1014.8
20260905164956 89 217 2.0 5.0 0.00 0.00 0.00 57 1014.9
20260905164455 89 242 3.0 5.0 0.00 0.00 0.00 58 1015.1
20260905163950 89 15 1.0 1.0 0.00 0.00 0.00 57 1015.2
20260905163447 89 353 3.0 5.0 0.00 0.00 0.00 56 1015.1
20260905162943 89 266 1.0 2.0 0.00 0.00 0.00 56 1015.1
20260905162438 88 348 0.0 0.0 0.00 0.00 0.00 62 1015.0
20260905161933 87 356 1.0 1.0 0.00 0.00 0.00 61 1015.0
20260905161432 87 318 0.0 1.0 0.00 0.00 0.00 59 1015.1
20260905160930 85 218 4.0 6.0 0.00 0.00 0.00 63 1015.3
20260905160424 86 133 3.0 3.0 0.00 0.00 0.00 62 1015.1
20260905155918 87 339 0.0 0.0 0.00 0.00 0.00 60 1014.9
20260905155418 86 343 0.0 0.0 0.00 0.00 0.00 59 1015.1
20260905154917 86 299 1.0 2.0 0.00 0.00 0.00 60 1015.1
20260905154413 84 334 0.0 0.0 0.00 0.00 0.00 64 1015.2
20260905153908 84 266 4.0 5.0 0.00 0.00 0.00 63 1014.8
20260905153404 84 326 1.0 1.0 0.00 0.00 0.00 62 1015.1
20260905152904 84 357 0.0 1.0 0.00 0.00 0.00 63 1015.4
20260905152403 82 281 3.0 3.0 0.00 0.00 0.00 65 1015.1
20260905151858 82 274 2.0 2.0 0.00 0.00 0.00 66 1015.2
20260905151355 82 246 4.0 6.0 0.00 0.00 0.00 66 1015.1
20260905150854 82 258 3.0 3.0 0.00 0.00 0.00 66 1014.9
20260905150349 82 215 4.0 5.0 0.00 0.00 0.00 68 1015.0
20260905145846 81 101 3.0 3.0 0.00 0.00 0.00 69 1015.1
20260905145340 81 328 3.0 3.0 0.00 0.00 0.00 68 1015.0
20260905144834 80 278 3.0 3.0 0.00 0.00 0.00 71 1015.2
20260905144330 80 144 4.0 6.0 0.00 0.00 0.00 71 1015.0
20260905143828 80 193 3.0 3.0 0.00 0.00 0.00 71 1014.9
20260905143323 80 180 4.0 5.0 0.00 0.00 0.00 73 1015.2
20260905142821 79 287 1.0 1.0 0.00 0.00 0.00 73 1015.2
20260905142316 79 359 0.0 0.0 0.00 0.00 0.00 73 1015.0
20260905141812 78 339 1.0 2.0 0.00 0.00 0.00 76 1015.3
20260905141307 78 334 1.0 2.0 0.00 0.00 0.00 74 1015.4
20260905140802 77 331 1.0 2.0 0.00 0.00 0.00 77 1015.4
20260905140256 76 86 3.0 5.0 0.00 0.00 0.00 78 1015.5
20260905135755 76 23 4.0 5.0 0.00 0.00 0.00 78 1016.2
20260905135252 76 303 3.0 3.0 0.00 0.00 0.00 79 1016.1
20260905134751 76 231 4.0 5.0 0.00 0.00 0.00 80 1016.2
20260905134245 75 325 0.0 0.0 0.00 0.00 0.00 78 1016.7
20260905133740 75 315 1.0 1.0 0.00 0.00 0.00 82 1016.8
20260905133235 74 285 1.0 1.0 0.00 0.00 0.00 82 1017.0
20260905132733 73 156 0.0 2.0 0.00 0.00 0.00 83 1017.0
20260905132224 73 244 2.0 2.0 0.00 0.00 0.00 84 1017.3
20260905131719 72 213 3.0 5.0 0.00 0.00 0.00 85 1017.4
20260905131214 72 313 1.0 1.0 0.00 0.00 0.00 87 1017.2
20260905130714 72 315 0.0 0.0 0.00 0.00 0.00 86 1017.7
20260905130208 71 342 2.0 2.0 0.00 0.00 0.00 86 1017.7
20260905125703 71 318 2.0 2.0 0.00 0.00 0.00 87 1017.2
20260905125158 71 233 4.0 5.0 0.00 0.00 0.00 87 1017.3
20260905124654 71 222 2.0 2.0 0.00 0.00 0.00 87 1017.6
20260905124150 71 237 2.0 2.0 0.00 0.00 0.00 86 1017.4
20260905123645 71 61 0.0 0.0 0.00 0.00 0.00 88 1017.2
20260905123142 72 322 0.0 0.0 0.00 0.00 0.00 88 1017.0
20260905122642 72 326 0.0 0.0 0.00 0.00 0.00 85 1017.2
20260905122137 71 350 0.0 0.0 0.00 0.00 0.00 85 1017.2
20260905121637 71 315 0.0 0.0 0.00 0.00 0.00 87 1017.0
20260905121133 71 48 2.0 3.0 0.00 0.00 0.00 86 1016.9
20260905120631 71 12 0.0 0.0 0.00 0.00 0.00 87 1016.7
20260905120126 71 348 0.0 0.0 0.00 0.00 0.00 87 1016.7
20260905115620 71 341 0.0 0.0 0.00 0.00 0.00 87 1016.6
20260905115115 70 353 2.0 2.0 0.00 0.00 0.00 87 1016.6
20260905114615 70 6 0.0 0.0 0.00 0.00 0.00 88 1016.5
20260905114113 70 345 2.0 2.0 0.00 0.00 0.00 89 1016.8
20260905113608 70 346 0.0 0.0 0.00 0.00 0.00 89 1016.9
20260905113103 70 356 2.0 2.0 0.00 0.00 0.00 89 1016.7
20260905112558 70 9 2.0 2.0 0.00 0.00 0.00 89 1016.6
20260905112054 70 333 4.0 6.0 0.00 0.00 0.00 88 1016.8
20260905111543 70 10 7.0 9.0 0.00 0.00 0.00 89 1017.1
20260905111042 70 358 2.0 2.0 0.00 0.00 0.00 89 1017.2
20260905110541 70 330 7.0 9.0 0.00 0.00 0.00 89 1017.2
20260905110036 70 20 3.0 5.0 0.00 0.00 0.00 88 1017.4
20260905105531 71 12 13.0 15.0 0.00 0.00 0.00 90 1017.4
20260905105029 71 358 11.0 13.0 0.00 0.00 0.00 92 1016.8
20260905104526 72 1 12.0 15.0 0.00 0.00 0.00 92 1016.7
20260905104020 72 352 11.0 15.0 0.00 0.00 0.00 95 1016.3
20260905103515 71 28 14.0 21.0 0.00 0.00 0.00 99 1015.6
20260905103012 71 243 7.0 10.0 0.00 0.00 0.00 99 1016.1
20260905102507 70 342 0.0 0.0 0.00 0.00 0.00 99 1014.5
20260905102003 70 345 0.0 0.0 0.00 0.00 0.00 99 1014.1
20260905101501 70 353 0.0 0.0 0.00 0.00 0.00 99 1014.1
20260905101000 70 342 0.0 0.0 0.00 0.00 0.00 99 1014.4
20260905100456 70 343 0.0 0.0 0.00 0.00 0.00 99 1014.4
20260905095955 70 343 0.0 0.0 0.00 0.00 0.00 99 1014.7
20260905095450 70 346 0.0 0.0 0.00 0.00 0.00 99 1014.5
20260905094946 70 346 0.0 0.0 0.00 0.00 0.00 99 1014.4
20260905094441 70 347 0.0 0.0 0.00 0.00 0.00 99 1014.6
20260905093939 70 344 0.0 0.0 0.00 0.00 0.00 99 1014.4
20260905093435 70 349 0.0 0.0 0.00 0.00 0.00 99 1014.7
20260905092931 70 346 0.0 0.0 0.00 0.00 0.00 99 1014.3
20260905092426 70 344 0.0 0.0 0.00 0.00 0.00 99 1014.1
20260905091920 70 343 0.0 0.0 0.00 0.00 0.00 99 1014.5
20260905091415 70 340 0.0 0.0 0.00 0.00 0.00 99 1014.2
20260905090914 70 346 0.0 0.0 0.00 0.00 0.00 99 1014.5
20260905090410 70 346 0.0 0.0 0.00 0.00 0.00 99 1014.4
20260905085909 71 346 0.0 0.0 0.00 0.00 0.00 99 1014.5
20260905085409 70 346 0.0 0.0 0.00 0.00 0.00 99 1014.3
20260905084905 70 345 0.0 0.0 0.00 0.00 0.00 99 1014.6
20260905084403 70 344 0.0 0.0 0.00 0.00 0.00 99 1014.3
20260905083859 70 343 0.0 0.0 0.00 0.00 0.00 99 1014.5
20260905083354 70 344 0.0 0.0 0.00 0.00 0.00 99 1014.4
20260905082850 70 343 0.0 0.0 0.00 0.00 0.00 99 1014.5
20260905082346 70 352 0.0 0.0 0.00 0.00 0.00 99 1014.6
20260905081841 70 345 0.0 0.0 0.00 0.00 0.00 99 1014.4
20260905081336 70 345 0.0 0.0 0.00 0.00 0.00 99 1014.3
20260905080835 70 346 0.0 0.0 0.00 0.00 0.00 99 1014.1
20260905080335 70 344 0.0 0.0 0.00 0.00 0.00 99 1014.3
20260905075833 70 343 0.0 0.0 0.00 0.00 0.00 99 1014.1
20260905075328 70 343 0.0 0.0 0.00 0.00 0.00 99 1014.3
20260905074827 70 345 0.0 0.0 0.00 0.00 0.00 99 1014.2
20260905074323 70 345 0.0 0.0 0.00 0.00 0.00 99 1014.3
20260905073818 70 345 0.0 0.0 0.00 0.00 0.00 99 1014.1
20260905073313 70 345 0.0 0.0 0.00 0.00 0.00 99 1014.1
20260905072808 70 342 0.0 0.0 0.00 0.00 0.00 99 1013.8
20260905072306 70 342 0.0 0.0 0.00 0.00 0.00 99 1014.0
20260905071800 70 341 0.0 0.0 0.00 0.00 0.00 99 1014.1
20260905071256 70 341 0.0 0.0 0.00 0.00 0.00 99 1013.8
20260905070750 70 341 0.0 0.0 0.00 0.00 0.00 99 1014.0
20260905070247 70 341 0.0 0.0 0.00 0.00 0.00 99 1014.0
20260905065745 70 344 0.0 0.0 0.00 0.00 0.00 99 1013.8
20260905065238 70 342 0.0 0.0 0.00 0.00 0.00 99 1014.2
20260905064733 70 342 0.0 0.0 0.00 0.00 0.00 99 1014.1
20260905064229 70 341 0.0 0.0 0.00 0.00 0.00 99 1014.3
20260905063728 70 341 0.0 0.0 0.00 0.00 0.00 99 1014.3
20260905063224 70 341 0.0 0.0 0.00 0.00 0.00 99 1014.2
20260905062720 70 341 0.0 0.0 0.00 0.00 0.00 99 1014.3
20260905062219 70 342 0.0 0.0 0.00 0.00 0.00 99 1014.5
20260905061713 71 342 0.0 0.0 0.00 0.00 0.00 99 1014.6
20260905061208 71 341 0.0 0.0 0.00 0.00 0.00 99 1014.6
20260905060703 71 342 0.0 0.0 0.00 0.00 0.00 99 1014.8
20260905060200 71 344 0.0 0.0 0.00 0.00 0.00 99 1014.6
20260905055658 71 344 0.0 0.0 0.00 0.00 0.00 99 1014.9
20260905055153 71 344 0.0 0.0 0.00 0.00 0.00 99 1015.1
20260905054649 71 344 0.0 0.0 0.00 0.00 0.00 99 1014.8
20260905054144 71 345 0.0 0.0 0.00 0.00 0.00 99 1015.0
20260905053638 71 348 0.0 0.0 0.00 0.00 0.00 99 1015.1
20260905053134 71 344 0.0 0.0 0.00 0.00 0.00 99 1015.3
20260905052632 71 340 0.0 0.0 0.00 0.00 0.00 99 1015.3
20260905052127 71 341 0.0 0.0 0.00 0.00 0.00 99 1015.4
20260905051623 71 342 0.0 0.0 0.00 0.00 0.00 99 1015.3
20260905051120 71 343 0.0 0.0 0.00 0.00 0.00 99 1015.5
20260905050615 71 343 0.0 0.0 0.00 0.00 0.00 99 1015.5
20260905050112 71 342 0.0 0.0 0.00 0.00 0.00 99 1015.6
20260905045607 71 342 0.0 0.0 0.00 0.00 0.00 99 1015.6
20260905045102 71 338 0.0 0.0 0.00 0.00 0.00 99 1015.7
20260905044601 71 341 0.0 0.0 0.00 0.00 0.00 99 1015.6
20260905044057 71 342 0.0 0.0 0.00 0.00 0.00 99 1015.6
20260905043555 71 342 0.0 0.0 0.00 0.00 0.00 99 1015.6
20260905043051 71 341 0.0 0.0 0.00 0.00 0.00 99 1015.6
20260905042549 71 341 0.0 0.0 0.00 0.00 0.00 98 1015.7
20260905042045 71 339 0.0 0.0 0.00 0.00 0.00 98 1015.6
20260905041540 71 341 0.0 0.0 0.00 0.00 0.00 98 1015.6
20260905041036 72 341 0.0 0.0 0.00 0.00 0.00 98 1015.7
20260905040536 71 341 0.0 0.0 0.00 0.00 0.00 98 1015.8
20260905040034 72 341 0.0 0.0 0.00 0.00 0.00 98 1015.8
20260905035529 72 341 0.0 0.0 0.00 0.00 0.00 98 1015.7
20260905035026 72 341 0.0 0.0 0.00 0.00 0.00 98 1015.8
20260905034521 72 341 0.0 0.0 0.00 0.00 0.00 97 1015.9
20260905034021 72 341 0.0 0.0 0.00 0.00 0.00 97 1015.5
20260905033515 72 341 0.0 0.0 0.00 0.00 0.00 97 1015.7
20260905033011 72 341 0.0 0.0 0.00 0.00 0.00 97 1015.5
20260905032505 72 341 0.0 0.0 0.00 0.00 0.00 97 1015.6
20260905032000 72 341 0.0 0.0 0.00 0.00 0.00 97 1015.6
20260905031456 72 341 0.0 0.0 0.00 0.00 0.00 97 1015.3
20260905030951 72 338 0.0 0.0 0.00 0.00 0.00 97 1015.2
20260905030446 72 346 0.0 0.0 0.00 0.00 0.00 97 1015.3
20260905025945 72 345 0.0 0.0 0.00 0.00 0.00 96 1015.5
20260905025440 72 345 0.0 0.0 0.00 0.00 0.00 96 1015.5
20260905024938 73 345 0.0 0.0 0.00 0.00 0.00 96 1015.4
20260905024437 73 346 0.0 0.0 0.00 0.00 0.00 96 1015.5
20260905023932 72 341 0.0 0.0 0.00 0.00 0.00 96 1015.5
20260905023428 73 341 0.0 0.0 0.00 0.00 0.00 96 1015.3
20260905022927 73 341 0.0 0.0 0.00 0.00 0.00 96 1015.2
20260905022422 73 344 0.0 0.0 0.00 0.00 0.00 96 1015.4
20260905021917 73 344 0.0 0.0 0.00 0.00 0.00 95 1015.5
20260905021412 73 344 0.0 0.0 0.00 0.00 0.00 95 1015.6
20260905020907 73 344 0.0 0.0 0.00 0.00 0.00 95 1015.5
20260905020406 73 344 0.0 0.0 0.00 0.00 0.00 95 1015.4
20260905015906 73 344 0.0 0.0 0.00 0.00 0.00 94 1015.4
20260905015404 73 346 0.0 0.0 0.00 0.00 0.00 94 1015.5
20260905014859 73 347 0.0 0.0 0.00 0.00 0.00 95 1015.5
20260905014354 73 344 0.0 0.0 0.00 0.00 0.00 95 1015.4
20260905013849 74 336 0.0 0.0 0.00 0.00 0.00 94 1015.4
20260905013346 74 345 0.0 0.0 0.00 0.00 0.00 93 1015.2
20260905012846 74 345 0.0 0.0 0.00 0.00 0.00 93 1015.4
20260905012341 74 343 0.0 0.0 0.00 0.00 0.00 93 1015.1
20260905011838 74 343 0.0 0.0 0.00 0.00 0.00 93 1015.1
20260905011333 74 340 0.0 0.0 0.00 0.00 0.00 92 1015.1
20260905010829 75 340 0.0 0.0 0.00 0.00 0.00 92 1015.1
20260905010323 75 338 0.0 0.0 0.00 0.00 0.00 91 1015.2
20260905005820 75 344 0.0 0.0 0.00 0.00 0.00 91 1015.3
20260905005316 75 345 0.0 0.0 0.00 0.00 0.00 90 1015.0
20260905004816 75 344 0.0 0.0 0.00 0.00 0.00 90 1015.1
20260905004310 76 345 0.0 0.0 0.00 0.00 0.00 89 1015.2
20260905003806 76 343 0.0 0.0 0.00 0.00 0.00 87 1015.1
20260905003302 76 345 0.0 0.0 0.00 0.00 0.00 86 1015.0
20260905002757 77 346 0.0 0.0 0.00 0.00 0.00 85 1015.0
20260905002257 77 346 0.0 0.0 0.00 0.00 0.00 85 1014.9
20260905001752 77 348 0.0 0.0 0.00 0.00 0.00 84 1014.9
20260905001251 78 347 0.0 0.0 0.00 0.00 0.00 83 1014.9
20260905000747 78 346 0.0 0.0 0.00 0.00 0.00 83 1015.0
20260905000243 79 345 0.0 0.0 0.00 0.00 0.00 83 1015.0
20260904235737 79 336 0.0 0.0 0.00 0.00 0.00 81 1015.0
20260904235232 80 342 0.0 0.0 0.00 0.00 0.00 78 1015.1
20260904234726 80 337 0.0 0.0 0.00 0.00 0.00 77 1014.9
20260904234222 81 344 0.0 0.0 0.00 0.00 0.00 75 1014.7
20260904233718 81 339 1.0 1.0 0.00 0.00 0.00 75 1014.9
20260904233214 82 343 0.0 1.0 0.00 0.00 0.00 75 1014.8
20260904232710 82 0 1.0 2.0 0.00 0.00 0.00 74 1014.5
20260904232206 83 329 0.0 0.0 0.00 0.00 0.00 73 1014.7
20260904231701 83 348 0.0 0.0 0.00 0.00 0.00 72 1014.6
20260904231157 84 0 1.0 2.0 0.00 0.00 0.00 72 1014.6
20260904230656 84 346 1.0 1.0 0.00 0.00 0.00 70 1014.6
20260904230151 85 18 0.0 0.0 0.00 0.00 0.00 70 1014.6
20260904225649 86 341 0.0 0.0 0.00 0.00 0.00 66 1014.6
20260904225144 84 2 0.0 0.0 0.00 0.00 0.00 70 1014.4
20260904224639 85 358 1.0 2.0 0.00 0.00 0.00 68 1014.6
20260904224133 85 356 0.0 0.0 0.00 0.00 0.00 68 1014.5
20260904223633 86 342 0.0 1.0 0.00 0.00 0.00 66 1014.6
20260904223128 86 326 0.0 0.0 0.00 0.00 0.00 65 1014.9
20260904222624 85 351 1.0 1.0 0.00 0.00 0.00 67 1014.7
20260904222120 86 296 2.0 2.0 0.00 0.00 0.00 65 1014.9
20260904221619 84 340 0.0 0.0 0.00 0.00 0.00 65 1015.1
20260904221119 83 359 3.0 3.0 0.00 0.00 0.00 69 1015.2
20260904220614 83 333 4.0 6.0 0.00 0.00 0.00 69 1015.7